RH
68 69 68 63 72 62 40 32 33 34 18 8 8 9 9 10 13 18 16 12 11 11 12 14 14 13 12 12 12 12 12 12 12
75 80 77 72 74 72 62 46 34 32 32 12 8 10 11 13 15 16 18 19 18 13 11 11 12 13 13 13 12 12 12 12 12
73 73 76 69 74 76 70 62 51 37 32 28 12 10 12 14 14 15 16 17 19 20 20 18 16 13 11 12 13 13 13 13 13
82 78 70 65 74 76 76 72 67 53 37 31 30 14 12 14 15 14 15 15 17 19 20 21 21 21 20 17 14 13 14 14 14
90 85 79 73 74 75 75 77 80 68 52 39 32 32 20 12 14 15 14 14 14 15 16 17 18 20 21 21 20 17 15 14 15
88 92 88 84 80 76 73 76 81 79 65 53 47 37 31 25 17 15 14 14 14 14 14 15 14 15 16 17 19 19 18 16 15
71 75 86 89 88 85 77 73 76 79 84 72 61 54 47 34 29 25 21 20 19 18 17 16 16 15 15 15 15 15 16 16 16
55 59 69 78 84 88 80 71 67 67 74 87 85 76 65 51 41 33 30 29 28 26 27 25 24 21 19 17 16 16 15 14 14
51 66 70 76 86 89 89 83 78 72 66 66 72 80 83 81 71 57 47 41 37 34 32 42 54 30 28 25 23 22 20 19 18
58 75 72 76 85 95 91 90 94 85 79 75 75 72 73 79 82 82 83 82 78 71 62 54 42 45 43 35 31 28 26 25 24
66 87 88 92 94 99 94 91 96 96 91 85 85 86 83 75 73 74 75 78 80 79 79 82 81 74 53 58 59 40 36 30 30
84 98 100 100 98 94 96 98 99 94 92 84 85 83 87 85 86 86 86 86 86 88 85 84 85 84 82 84 81 74 70 60 53
82 82 97 98 99 99 92 92 91 91 92 89 79 81 87 88 86 88 84 88 91 90 90 83 69 74 83 91 88 84 79 67 59
16 53 70 87 98 99 98 96 97 99 94 85 82 77 69 64 62 57 55 57 62 58 51 47 45 47 50 56 75 85 85 88 84
11 20 56 100 84 90 97 99 100 100 98 87 81 73 59 53 51 48 44 42 41 40 37 34 32 32 35 39 52 58 84 79 92
14 11 14 70 87 95 83 86 94 95 98 88 80 70 58 54 52 51 49 47 44 42 40 38 34 30 27 26 25 31 42 53 56
23 15 11 22 56 92 99 98 95 98 100 97 90 81 67 60 58 55 51 50 48 45 43 42 39 36 35 32 31 30 24 24 38
34 23 16 12 16 46 93 85 100 99 100 99 98 96 72 64 61 58 56 55 53 52 49 43 30 27 29 34 34 32 28 27 32
35 26 21 16 13 19 41 76 98 100 100 100 100 96 77 68 61 58 56 56 54 51 42 29 22 21 20 23 28 27 25 28 41
38 29 24 22 15 39 76 95 89 87 97 98 99 97 78 71 71 68 61 57 54 42 31 25 43 64 47 56 52 69 55 41 43
Wind_Speed
13 12 11 10 9 9 8 8 6 5 5 6 6 7 8 9 6 5 5 4 4 5 5 4 4 4 4 5 6 6 6 6 7
15 15 14 13 12 11 10 10 10 8 6 4 4 5 6 7 7 6 6 6 6 6 5 5 5 6 6 6 6 7 7 7 7
18 18 18 17 15 14 12 12 12 11 10 7 5 5 6 7 8 8 8 7 7 7 6 6 6 6 7 7 8 8 8 8 8
20 20 20 19 18 17 15 14 13 13 12 11 8 6 7 7 8 8 8 8 8 8 8 8 7 7 8 8 8 9 9 9 9
23 22 22 21 20 20 19 18 17 16 15 14 12 10 7 7 7 7 7 7 7 8 8 9 9 9 9 9 10 9 9 9 10
25 25 25 25 24 23 22 21 19 18 17 16 15 13 11 9 8 8 7 6 6 7 7 7 8 9 9 10 11 11 11 11 11
29 30 28 27 27 27 25 24 23 21 19 18 18 16 16 13 11 10 10 9 8 7 8 7 8 9 9 10 11 12 12 13 13
36 34 34 31 29 28 27 26 25 24 23 22 21 20 20 18 16 14 13 13 12 11 11 10 9 10 10 10 11 12 12 13 14
37 37 34 34 32 31 29 28 27 27 26 26 24 23 22 21 20 19 17 17 16 16 14 14 14 13 13 13 13 13 13 13 14
39 37 37 37 34 32 30 30 29 29 28 26 25 25 24 25 24 23 22 20 20 20 20 19 19 19 18 17 16 16 16 16 15
40 38 37 37 35 32 31 32 30 30 29 29 27 27 26 25 25 25 25 24 24 24 24 23 22 22 23 23 22 20 19 19 18
43 42 40 38 35 34 32 32 31 30 27 27 27 28 28 27 26 26 25 25 24 24 25 26 26 27 27 28 28 27 24 23 22
48 44 43 43 38 37 37 34 33 32 31 28 28 28 27 25 23 22 23 25 26 25 24 25 27 29 30 31 31 30 29 28 26
50 51 47 44 41 37 37 35 32 31 27 28 29 28 27 26 25 24 25 26 27 28 30 31 32 32 32 34 35 33 33 32 32
50 51 52 43 44 41 37 34 33 30 30 31 31 31 27 26 24 23 24 26 26 27 29 30 31 33 33 34 33 32 33 35 35
47 50 50 53 44 44 40 41 35 33 32 32 28 27 27 26 25 25 26 27 29 30 30 31 32 32 32 32 32 34 35 36 38
45 43 47 50 53 44 39 36 41 33 32 31 29 29 27 26 27 29 30 30 31 32 32 34 36 38 39 38 36 36 35 36 38
39 38 38 43 47 51 37 40 31 31 31 31 37 32 30 29 30 31 33 33 34 34 36 38 40 41 42 43 43 41 39 38 39
31 32 31 34 38 37 38 35 37 34 36 35 34 29 31 32 39 36 37 37 38 38 39 41 40 41 41 43 44 42 42 42 42
23 25 25 27 29 30 29 31 33 41 36 32 29 26 28 31 36 43 42 42 42 41 40 38 37 32 32 34 37 39 39 41 42
Wind_Direction
264 265 268 272 268 269 274 276 279 287 295 290 284 270 270 270 253 238 245 255 268 270 272 273 279 292 306 314 312 312 314 317 319
267 263 265 266 261 259 269 276 278 280 283 280 263 253 247 257 259 254 250 251 260 266 271 277 285 292 294 300 302 306 311 317 317
264 262 263 263 262 263 261 265 270 275 279 277 261 240 237 238 246 253 257 259 257 265 272 284 294 299 303 305 305 307 310 312 312
261 261 264 265 262 261 259 259 264 266 267 269 266 251 238 235 238 247 256 261 264 266 271 275 282 291 298 301 304 306 308 309 310
259 258 257 258 260 266 263 258 260 257 257 261 260 256 245 239 248 249 249 255 261 268 273 279 283 286 289 293 295 296 298 298 300
257 258 257 256 256 255 260 263 260 258 253 251 257 258 256 248 242 242 249 255 260 264 268 275 278 280 283 284 287 290 292 292 293
257 258 255 255 257 258 257 256 258 257 255 254 253 253 253 249 246 248 247 247 248 256 266 269 277 279 281 284 285 286 286 287 287
255 254 257 256 255 255 255 256 253 252 253 252 253 256 259 256 252 248 250 255 255 254 258 262 269 276 279 282 284 287 288 290 290
249 250 250 255 255 253 253 255 254 253 251 251 252 252 254 258 260 257 255 255 259 261 262 264 263 266 269 272 279 284 285 286 288
247 250 250 247 248 251 251 254 255 254 250 249 252 253 253 255 256 260 262 263 264 267 267 269 271 271 270 271 272 277 283 284 286
246 248 248 247 243 243 247 252 251 252 252 252 251 250 250 251 253 255 257 261 264 266 268 270 271 272 272 272 272 270 272 276 280
247 243 244 244 247 245 245 246 247 248 247 247 252 257 255 250 251 255 260 263 265 267 272 276 277 275 273 272 272 272 268 270 274
244 248 241 243 243 246 247 247 250 248 248 249 250 249 249 254 259 261 265 265 266 272 274 274 276 278 278 276 270 268 270 269 268
246 243 249 239 244 242 242 244 247 245 241 243 243 246 254 257 258 262 265 268 269 272 274 275 275 273 272 272 271 272 270 267 269
243 242 240 244 240 244 240 242 244 245 238 241 244 250 250 254 258 261 263 266 269 271 273 274 275 275 274 274 273 269 268 271 268
243 242 240 240 242 241 243 243 243 243 243 244 243 243 245 253 258 261 263 266 269 273 279 281 281 279 276 275 274 270 267 265 265
242 242 243 242 240 244 241 238 239 239 241 242 246 242 250 258 265 268 270 271 272 275 279 283 285 283 281 277 274 274 272 269 264
239 241 244 243 246 241 245 249 236 231 237 239 250 247 251 256 258 264 266 269 271 276 279 282 281 278 275 273 272 270 269 266 261
237 240 242 244 247 246 243 247 254 246 242 245 244 245 259 266 265 260 266 271 273 278 282 283 282 278 275 272 272 271 267 259 257
239 240 244 242 243 231 235 237 247 255 255 254 245 239 257 269 278 281 283 285 288 288 287 288 282 285 278 279 273 272 268 262 258